Hourly Data Report for April 08, 2006

TORONTO CITY
ONTARIO

43°40'00.000" N
79°24'00.000" W
112.50 m
6158355
71508
XTO

Download Data

Hourly Data (April 2006)
Hourly Data Report for April 8, 2006
TIME
LST
Temp Definition
°C
Dew Point Definition
°C
Rel Hum Definition
%
Precip. Amount Definition
mm

Wind Dir Definition
10's deg

Wind Spd Definition
km/h
Visibility Definition
km
Stn Press Definition
kPa
Hmdx Definition


Wind Chill Definition


Weather Definition


00:00 1.8 -5.0 61   LegendMM LegendMM   99.65     LegendNANA
01:00 0.8 -6.7 57   LegendMM LegendMM   99.69     LegendNANA
02:00 0.0 -7.4 57   LegendMM LegendMM   99.76     LegendNANA
03:00 -0.9 -7.7 60   LegendMM LegendMM   99.85     LegendNANA
04:00 -1.6 -7.9 62   LegendMM LegendMM   99.98     LegendNANA
05:00 -2.3 -8.4 63   LegendMM LegendMM   100.00     LegendNANA
06:00 -2.9 -8.6 65   LegendMM LegendMM   100.06     LegendNANA
07:00 -2.7 -8.7 63   LegendMM LegendMM   100.16     LegendNANA
08:00 -1.9 -8.4 61   LegendMM LegendMM   100.24     LegendNANA
09:00 -0.9 -8.3 57   LegendMM LegendMM   100.35     LegendNANA
10:00 0.8 -7.3 55   LegendMM LegendMM   100.35     LegendNANA
11:00 1.4 -8.0 50   LegendMM LegendMM   100.36     LegendNANA
12:00 3.4 -6.7 48   LegendMM LegendMM   100.34     LegendNANA
13:00 3.8 -8.0 42   LegendMM LegendMM   100.34     LegendNANA
14:00 4.4 -4.7 52   LegendMM LegendMM   100.30     LegendNANA
15:00 4.6 -4.1 53   LegendMM LegendMM   100.33     LegendNANA
16:00 4.2 -4.1 55   LegendMM LegendMM   100.41     LegendNANA
17:00 3.8 -5.0 53   LegendMM LegendMM   100.50     LegendNANA
18:00 3.0 -5.1 55   LegendMM LegendMM   100.55     LegendNANA
19:00 2.0 -5.7 57   LegendMM LegendMM   100.59     LegendNANA
20:00 1.4 -5.8 59   LegendMM LegendMM   100.67     LegendNANA
21:00 0.7 -6.0 61   LegendMM LegendMM   100.72     LegendNANA
22:00 0.5 -6.1 61   LegendMM LegendMM   100.73     LegendNANA
23:00 0.5 -5.9 62   LegendMM LegendMM   100.74     LegendNANA

Notes on Data Quality.

Legend

  • E = Estimated
  • M = Missing
  • NA = Not Available*
  • [empty] = Indicates an unobserved value
Date modified: